WANGEN Weather Reports


Display with metric or nautical units.
time (UTC)temp
F
wind
direction
speed
MPH
gust
MPH
rain 1hr
in
rain 24hr
in
rain mn
in
humidity
%
barometer
mb
20260507150210 64 276 11.0 0.0 0.00 0.00 0.07 53 1012.9
20260507143212 62 26 8.0 0.0 0.00 0.00 0.07 56 1013.0
20260507140210 62 336 8.0 0.0 0.00 0.00 0.07 59 1013.1
20260507133210 61 261 11.0 0.0 0.00 0.00 0.07 63 1013.3
20260507130210 60 317 8.0 0.0 0.00 0.00 0.07 68 1013.4
20260507123210 58 302 7.0 0.0 0.00 0.00 0.06 72 1013.4
20260507120211 58 265 8.0 0.0 0.00 0.00 0.06 73 1013.4
20260507113210 56 272 6.0 0.0 0.00 0.00 0.06 79 1013.5
20260507110210 55 225 6.0 0.0 0.00 0.00 0.06 83 1013.8
20260507103216 55 285 8.0 0.0 0.00 0.00 0.06 83 1013.9
20260507100212 53 254 7.0 0.0 0.00 0.00 0.06 87 1013.9
20260507093211 52 281 8.0 0.0 0.00 0.00 0.06 91 1013.9
20260507090211 51 264 7.0 0.0 0.00 0.00 0.06 93 1013.7
20260507083212 50 247 8.0 0.0 0.00 0.00 0.06 94 1013.6
20260507080211 49 293 9.0 0.0 0.00 0.00 0.06 94 1013.4
20260507073212 49 196 7.0 0.0 0.00 0.00 0.06 95 1013.3
20260507070212 48 223 4.0 0.0 0.00 0.00 0.06 95 1013.1
20260507063211 48 202 8.0 0.0 0.00 0.00 0.06 94 1012.9
20260507060211 48 202 7.0 0.0 0.00 0.00 0.04 94 1012.6
20260507053211 48 243 8.0 0.0 0.00 0.00 0.02 94 1012.3
20260507050213 47 236 5.0 0.0 0.00 0.00 0.01 94 1012.0
20260507043211 47 243 3.0 0.0 0.00 0.00 0.00 94 1011.6
20260507040216 47 212 1.0 0.0 0.00 0.00 0.00 94 1011.3
20260507033211 47 161 0.0 0.0 0.00 0.00 0.00 94 1011.1
20260507030211 47 161 0.0 0.0 0.00 0.00 0.00 95 1011.0
20260507023211 47 231 0.0 0.0 0.00 0.00 0.00 94 1011.0
20260507020211 46 209 0.0 0.0 0.00 0.00 0.00 94 1010.9
20260507013212 46 209 0.0 0.0 0.00 0.00 0.00 94 1010.6
20260507010211 46 209 0.0 0.0 0.00 0.00 0.00 94 1010.6
20260507003209 46 209 0.0 0.0 0.00 0.00 0.00 94 1010.3
20260507000209 46 209 0.0 0.0 0.00 0.00 0.00 93 1010.4
20260506233209 46 209 0.0 0.0 0.00 0.00 0.00 93 1010.4
20260506230209 47 209 0.0 0.0 0.00 0.00 0.00 93 1010.3
20260506223209 48 209 0.0 0.0 0.00 0.00 0.00 92 1010.2
20260506213209 48 209 0.0 0.0 0.00 0.00 0.02 92 1010.1
20260506210210 48 221 0.0 0.0 0.00 0.00 0.02 92 1009.9
20260506203210 49 221 0.0 0.0 0.00 0.00 0.02 91 1009.6
20260506200210 49 227 2.0 0.0 0.00 0.00 0.02 91 1009.6
20260506193215 50 214 4.0 0.0 0.00 0.00 0.02 91 1009.2
20260506190211 50 219 4.0 0.0 0.00 0.00 0.02 91 1008.7
20260506183209 51 261 8.0 0.0 0.00 0.00 0.02 91 1008.2
20260506180216 51 252 7.0 0.0 0.00 0.00 0.02 92 1008.2
20260506173210 51 218 4.0 0.0 0.00 0.00 0.02 92 1008.0
20260506170215 51 220 6.0 0.0 0.00 0.00 0.02 92 1007.6
20260506163210 51 230 3.0 0.0 0.00 0.00 0.02 92 1007.2
20260506160210 51 241 10.0 0.0 0.00 0.00 0.01 92 1007.6
20260506153210 50 269 12.0 0.0 0.00 0.00 0.00 91 1007.2